Location: Unspecified
(0.0000°N, 0.0000°E)
Time: 17:53:44
(UTC+00:00)

ATLAS 5 CENTAUR DEB - Visible Passes

Search period start: 14 January 2026 00:00
Search period end: 24 January 2026 00:00
Orbit: 9438 x 40554 km, 11.6° (Epoch: 13 January)

Date Brightness Start Highest point End Pass type
(mag) Time Alt. Az. Time Alt. Az. Time Alt. Az.
14 Jan ? 16:39:53 10° W 21:40:55 85° SSW 07:46:58 10° E daylight
16 Jan ? 14:19:52 10° W 23:53:53 86° NNE 05:26:56 10° E visible
18 Jan ? 11:56:02 10° W 00:00:08 64° ENE 03:04:09 10° E visible
19 Jan ? 20:36:20 10° WSW 23:02:26 37° W 04:22:16 10° W visible
20 Jan ? 17:10:58 10° E 22:05:58 34° E 00:27:12 10° ENE visible
21 Jan ? 18:01:45 10° W 21:09:11 67° WSW 09:09:38 10° E daylight
